Regional Weather Roundup
Issued by NWS New Orleans/Baton Rouge, LA

Home | Current Version | Previous Version | Text Only | Print | Product List | Glossary Off
Versions: 1 2 3 4 5 6 7 8 9 10 11 12 13 14 15 16 17 18 19 20 21 22 23 24 25 26 27 28 29 30 31 32 33 34 35 36 37 38 39 40 41 42 43 44 45 46 47 48 49 50

892
ASUS44 KLIX 250410
RWRLIX
NEW ORLEANS REGIONAL WEATHER ROUNDUP
NATIONAL WEATHER SERVICE NEW ORLEANS LA
1100 PM CDT THU JUL 24 2014

NOTE: "FAIR" INDICATES FEW OR NO CLOUDS BELOW 12,000 FEET WITH NO
      SIGNIFICANT WEATHER AND/OR OBSTRUCTIONS TO VISIBILITY.
      SKY/WX - SKY CONDITION AND SIGNIFICANT WEATHER.
      TMP - AIR TEMPERATURE.     DP    - DEWPOINT TEMPERATURE.
      RH  - RELATIVE HUMIDITY.   PRES  - PRESSURE.
      HI  - HEAT INDEX.          WCI   - WIND CHILL INDEX.

*  THESE STATIONS ARE NOT NWS OR FAA STATIONS AND ARE NOT UNDER
   NWS QUALITY CONTROL.

LAZ038-040-048-061>063-065>067-069-250500-
SOUTHEAST LOUISIANA

CITY           SKY/WX    TMP DP  RH WIND       PRES   REMARKS
N.O. AUDUBON     N/A     82  76  83 MISG        N/A
N.O. INTL ARPT PTCLDY    79  73  82 SW6       29.99R
N.O. LAKEFRONT CLEAR     82  74  76 SW7       29.99R
N.O. DOWNTOWN*   N/A     82  72  69 SW3       30.00R
SLIDELL        CLEAR     77  74  90 CALM      29.99R
BATON ROUGE    CLEAR     77  74  90 CALM      29.99R
BOOTHVILLE     PTCLDY    81  74  79 SW6       30.00R
BELLE CHASSE   MOCLDY    77  73  87 W3        29.98R
BOGALUSA*        N/A     79  75  86 CALM      30.00S
GALLIANO*      NOT AVBL
NEW ROADS*       N/A     78  76  94 CALM      29.99R FOG
GONZALES*        N/A     77  76  97 CALM      29.98S
HAMMOND*       CLEAR     75  72  88 N5        30.02R FOG
HOUMA*         CLEAR     75  71  88 CALM      29.99S FOG
PORT FOURCHON* CLOUDY    82  77  83 SW8       30.02R

$$

MSZ070-080>082-250500-
SOUTHERN MISSISSIPPI

CITY           SKY/WX    TMP DP  RH WIND       PRES   REMARKS
MCCOMB         PTCLDY    77  73  87 CALM      30.02R
GULFPORT       CLEAR     82  74  76 CALM      29.98R
BILOXI         PTCLDY    80  74  80 S3        29.99R
PASCAGOULA     CLEAR     75  74  96 CALM      30.00R

$$

COASTAL OBSERVATIONS
LAKE AND NEARSHORE STATIONS

STATION/POSITION TIME  TEMP    WIND        PRES    WAVE
                       AIR SEA DIR/SP/G            HT/PER
                 (UTC) (F)     (DEG/KT/KT) (MB)    (FT/S)
PASCAGOULA       0400   83     180/  8/ 11 1015.0
WAVELAND YACHT   0400   82     240/  3/  3 1014.9
GRAND ISLE       0400   82 85  240/  5/  9 1016.4
SOUTHWEST PASS   0400   83 85  220/  9/ 13 1016.3
NEW CANAL        0400   82 84  220/  5/  6 1015.9
SHELL BEACH      0400   81 81  230/  2/  3 1015.4

OFFSHORE STATIONS

STATION/POSITION TIME  TEMP    WIND        PRES    WAVE
                       AIR SEA DIR/SP/G            HT/PER
                 (UTC) (F)     (DEG/KT/KT) (MB)    (FT/S)
64 S DAUPHIN ISL 0322   84 85  210/ 12/ 14 1016.1

$$




USA.gov is the U.S. government's official web portal to all federal, state and local government web resources and services.